Location: Peterborough
(44.3091°N, 78.3197°W)
Time: 23:27:21
(UTC-05:00)

Vanguard 1 Rocket - Pass Details

Date: 11 December 2023
Orbit: 654 x 4218 km, 34.3° (Epoch: 24 February)

Event Time Altitude Azimuth Distance (km) Brightness Sun altitude
Exits shadow 04:26:26 28° 230° (SW) 5,752 11.0 -33.4°
Maximum altitude 04:40:55 57° 169° (S) 3,728 10.4 -30.9°
Drops below altitude 10° 04:55:29 10° 96° (E) 4,788 12.0 -28.3°
Sets 04:58:26 0° 92° (E) 5,422 12.6 -27.7°
